Probability
0 0 0 0 0 0 0 0 0 0 0 0 0 0 0 0 0 0 0 0 0 0 0 0 0 0 0 0 0 0 0 0 0 0 0 0 0 0 0 0 0 0 0 0
0 0 0 0 0 0 0 0 0 0 0 0 0 0 0 0 0 0 0 0 0 0 0 0 0 0 0 0 0 0 0 0 0 0 0 0 0 0 0 0 0 0 0 0
0 0 0 0 0 0 0 0 0 0 0 0 0 0 0 0 0 0 0 0 0 0 0 0 0 0 0 0 0 0 0 0 0 0 0 0 0 0 0 0 0 0 0 0
0 0 0 0 0 0 0 0 0 0 0 0 0 0 0 0 0 0 0 0 0 0 0 0 0 0 0 0 0 0 0 0 0 0 0 0 0 0 0 0 0 0 0 0
0 0 0 0 0 0 0 0 0 0 0 0 0 0 0 0 0 0 0 0 0 0 0 0 0 0 0 0 0 0 0 0 0 0 0 0 0 0 0 0 0 0 0 0
0 0 0 0 0 0 0 0 0 0 0 0 0 0 0 0 0 0 0 0 0 0 0 0 0 0 0 0 0 0 0 0 0 0 0 0 0 0 0 0 0 0 0 0
0 0 0 0 0 0 0 0 0 0 0 0 0 0 0 0 0 0 0 0 0 0 0 0 0 0 0 0 0 0 0 0 0 0 0 0 0 0 0 0 0 0 0 0
0 0 0 0 0 0 0 0 0 0 0 0 0 0 0 0 0 0 0 0 0 0 0 0 0 0 0 0 0 0 0 0 0 0 0 0 0 0 0 0 0 0 0 0
0 0 0 0 0 0 0 0 0 0 0 0 0 0 0 0 0 0 0 0 0 0 0 0 0 0 0 0 0 0 0 0 0 0 0 0 0 0 0 0 0 0 0 0
0 0 0 0 0 0 0 0 0 0 0 0 0 0 0 0 0 0 0 0 0 0 0 0 0 0 0 0 0 0 0 0 0 0 0 0 0 0 0 0 0 0 0 0
0 0 0 0 0 0 0 0 0 0 0 0 0 0 0 0 0 0 0 0 0 0 0 0 0 0 0 0 0 0 0 0 0 0 0 0 0 0 0 0 0 0 0 0
0 0 0 0 0 0 0 0 0 0 0 0 0 0 0 0 0 0 0 0 0 0 0 0 0 0 0 0 0 0 0 0 0 0 0 0 0 0 0 0 0 0 0 0
0 0 0 0 0 0 0 0 0 0 0 0 0 0 0 0 0 0 0 0 0 0 0 0 0 0 0 0 0 0 0 0 0 0 0 0 0 0 0 0 0 0 0 0
0 0 0 0 0 0 0 0 0 0 0 0 0 0 0 0 0 0 0 0 0 0 0 0 0 0 0 0 0 0 0 0 0 0 0 0 0 0 0 0 0 0 0 0
0 0 0 0 0 0 0 0 0 0 0 0 0 0 0 0 0 0 0 0 0 0 0 0 0 0 0 0 0 0 0 0 0 0 0 0 0 0 0 0 0 0 0 0
0 0 0 0 0 0 0 0 0 0 0 0 0 0 0 0 0 0 0 0 0 0 0 0 0 0 0 0 0 0 0 0 0 0 0 0 0 0 0 0 0 0 0 0
0 0 0 0 0 0 0 0 0 0 0 0 0 0 0 0 0 0 0 0 0 0 0 0 0 0 0 0 0 0 0 0 0 0 0 0 0 0 0 0 0 0 0 0
0 0 0 0 0 0 0 0 0 0 0 0 0 0 0 0 0 0 0 0 0 0 0 0 0 0 0 0 0 0 0 0 0 0 0 0 0 0 0 0 0 0 0 0
0 0 0 0 0 0 0 0 0 0 0 0 0 0 0 0 0 0 0 0 0 0 0 0 0 0 0 0 0 0 0 0 0 0 0 0 0 0 0 0 0 0 0 0
0 0 0 0 0 0 0 0 0 0 0 0 0 0 0 0 0 0 0 0 0 0 0 0 0 0 0 0 0 0 0 0 0 0 0 0 0 0 0 0 0 0 0 0
0 0 0 0 0 0 0 0 0 0 0 0 0 0 0 0 0 0 0 0 0 0 0 0 0 0 0 0 0 0 0 0 0 0 0 0 0 0 0 0 0 0 0 0
0 0 0 0 0 0 0 0 0 0 0 0 0 0 0 0 0 0 0 0 0 0 0 0 0 0 0 0 0 0 0 0 0 0 0 0 0 0 0 0 0 0 0 0
0 0 0 0 0 0 0 0 0 0 0 0 0 0 0 0 0 0 0 0 0 0 0 0 0 0 0 0 0 0 0 0 0 0 0 0 0 0 0 0 0 0 0 0
0 0 0 0 0 0 0 0 0 0 0 0 0 0 0 0 0 0 0 0 0 0 0 0 0 0 0 0 0 0 0 0 0 0 0 0 0 0 0 0 0 0 0 0
0 0 0 0 0 0 0 0 0 0 0 0 0 0 0 0 0 0 0 0 0 0 0 0 0 0 0 0 0 0 0 0 0 0 0 0 0 0 0 0 0 0 0 0
0 0 0 0 0 0 0 0 0 0 0 0 0 0 0 0 0 0 0 0 0 0 0 0 0 0 0 0 0 0 0 0 0 0 0 0 0 0 0 0 0 0 0 0
0 0 0 0 0 0 0 0 0 0 0 0 0 0 0 0 0 0 0 0 0 0 0 0 0 0 0 0 0 0 0 0 0 0 0 0 0 0 0 0 0 0 0 0
Wind_Speed
6 4 2 4 5 5 7 7 8 8 9 9 6 6 5 5 5 6 6 6 6 5 5 5 5 5 4 4 3 2 2 2 2 3 2 2 1 2 2 1 2 2 2 2
5 4 3 6 8 8 9 8 10 10 13 7 6 3 4 5 5 6 7 7 6 6 6 5 6 5 5 5 4 2 2 2 3 2 2 2 2 1 1 1 2 2 1 2
5 3 2 9 10 9 7 7 8 11 12 5 5 4 4 4 4 5 6 6 6 6 5 5 5 5 5 5 4 3 2 2 2 2 2 2 2 1 1 2 2 2 2 2
2 1 8 8 2 7 8 9 8 8 7 5 6 5 3 2 3 4 5 6 6 6 6 5 5 5 4 4 3 2 2 3 3 3 3 3 2 2 2 2 2 2 2 3
3 4 9 7 3 4 6 7 7 9 8 6 4 3 3 2 3 4 5 5 4 4 4 4 4 4 4 3 3 2 3 3 3 3 3 2 2 2 2 2 2 2 2 2
3 5 8 6 2 2 3 6 3 4 6 4 1 3 5 3 4 4 5 5 5 4 4 4 4 4 3 4 3 3 3 4 3 3 3 3 3 3 2 2 2 2 2 2
6 7 10 6 2 3 4 6 1 3 4 3 4 4 3 3 4 4 5 6 5 5 4 4 5 4 4 4 4 5 4 4 3 3 3 3 2 2 2 1 1 1 2 2
6 7 11 2 4 6 5 1 1 1 2 2 3 3 3 3 4 5 5 6 6 5 5 5 5 4 5 5 5 5 4 4 4 3 3 2 1 2 1 1 1 1 1 2
9 8 2 3 4 1 1 1 2 2 2 2 2 3 3 3 4 4 5 5 5 5 5 5 5 4 5 6 6 5 5 4 4 3 2 2 1 1 1 1 1 1 1 2
5 7 3 2 1 2 1 2 2 2 2 1 2 2 3 3 4 4 5 5 5 4 5 6 6 5 4 5 5 4 4 4 4 3 3 2 2 1 1 1 2 2 2 2
6 5 3 3 2 3 2 2 2 2 2 2 1 2 3 3 4 4 4 4 4 4 5 6 6 6 5 4 4 4 4 4 4 3 2 2 2 2 2 2 3 3 2 2
6 4 4 4 2 2 2 3 2 1 2 2 2 2 2 3 3 3 4 4 4 4 5 5 5 6 5 4 3 3 4 4 3 3 3 2 2 3 4 4 4 5 4 3
5 3 3 3 2 2 2 3 2 1 2 2 2 2 2 3 3 4 4 4 4 5 5 5 5 5 5 4 4 3 4 4 3 3 3 3 2 2 3 4 5 5 5 4
2 1 2 3 3 2 2 2 2 2 2 2 2 2 2 3 3 4 4 4 4 4 4 5 5 6 5 4 3 3 3 3 3 3 3 3 3 3 2 2 3 4 5 5
3 3 3 2 1 2 2 1 1 2 2 2 2 2 2 3 4 5 5 4 4 4 4 4 5 6 4 3 3 3 3 3 3 3 3 3 3 3 2 2 2 3 3 4
3 2 1 2 3 3 2 2 2 3 2 2 3 3 3 3 4 4 4 3 3 4 5 5 6 6 4 3 3 3 2 3 3 3 3 3 3 3 2 2 2 2 3 3
2 2 2 3 4 4 4 3 3 3 3 3 4 3 3 3 3 4 4 3 3 4 4 5 6 5 3 3 3 3 2 2 3 2 2 2 3 3 3 2 2 3 3 3
2 3 3 3 3 3 4 3 2 3 3 3 3 2 2 2 4 5 5 4 4 5 4 4 4 4 3 3 3 2 2 2 2 2 2 2 3 3 3 2 3 3 3 3
2 2 2 2 2 2 3 3 3 3 3 2 2 3 3 4 4 4 3 3 4 5 6 5 6 4 4 4 3 2 2 2 2 2 2 2 2 2 2 2 3 3 3 3
2 2 2 2 2 1 2 3 2 3 3 2 2 2 3 4 3 3 3 3 4 4 5 5 4 3 3 4 4 2 2 2 2 2 2 2 2 3 3 3 3 3 3 3
2 2 2 2 3 3 2 2 2 3 3 2 2 3 4 4 3 2 2 4 5 4 4 4 3 3 3 3 3 2 2 2 2 2 2 2 3 3 3 3 3 3 3 3
2 2 2 2 2 3 3 2 2 2 2 2 2 2 2 3 3 3 3 4 4 5 4 3 3 4 4 4 2 2 2 2 2 2 2 3 3 3 3 3 3 3 3 3
2 2 2 2 2 3 3 2 2 2 2 2 3 3 3 3 3 2 4 3 3 5 4 3 5 6 6 3 2 2 3 3 3 3 3 3 3 3 4 4 4 4 4 3
2 2 2 2 2 2 3 3 3 2 2 3 3 3 3 3 3 2 3 4 5 5 4 5 7 7 5 3 2 3 3 3 3 3 3 3 3 3 3 4 4 4 4 4
1 1 1 2 2 2 3 3 3 3 3 3 4 4 3 2 3 3 3 4 5 5 4 5 7 6 4 3 3 3 3 3 3 3 3 3 3 3 4 4 4 5 5 4
1 1 2 2 2 2 2 2 2 3 3 3 4 3 3 3 3 3 3 4 4 4 4 4 4 4 3 3 3 3 3 4 4 3 4 4 4 4 4 4 5 5 5 5
1 1 1 2 2 2 2 2 2 3 3 3 4 4 3 3 3 3 4 3 3 4 3 3 3 3 3 3 3 3 3 3 4 4 4 4 4 4 5 6 5 5 5 5
Wind_Direction
252 265 224 235 233 204 208 218 226 247 250 267 283 286 301 313 323 332 331 336 336 335 335 334 333 335 331 323 326 328 325 315 303 309 309 302 302 304 303 302 288 274 265 268
262 255 242 261 248 223 228 234 240 261 268 267 279 283 300 307 317 319 319 324 330 334 336 333 330 328 329 325 323 326 315 306 318 325 324 316 310 304 304 306 298 285 264 257
257 284 320 264 236 209 214 217 208 236 256 291 290 283 279 291 303 302 310 318 323 325 325 325 323 323 318 317 325 331 321 322 333 330 316 313 313 312 291 281 282 279 279 272
248 50 239 243 191 191 214 235 226 244 267 277 270 280 279 289 298 309 318 319 323 327 328 330 330 330 326 331 335 336 334 332 333 328 317 322 326 309 302 295 275 273 276 272
191 236 267 281 239 184 207 253 232 241 263 281 296 298 283 337 335 315 318 322 322 324 327 334 340 338 339 344 353 354 340 330 324 318 313 316 305 299 304 300 289 281 289 281
193 218 239 248 242 190 170 262 253 221 246 266 285 274 275 337 343 335 339 341 340 341 345 350 350 348 351 350 353 339 326 319 317 312 304 297 293 298 306 299 295 298 298 297
211 234 256 257 259 135 189 259 292 223 237 229 231 247 293 345 346 346 344 346 348 349 350 349 352 356 352 349 336 328 329 323 317 309 300 294 300 308 312 306 309 309 304 308
192 222 251 242 135 183 228 301 240 252 256 247 271 304 324 339 339 342 344 348 349 349 346 349 356 355 345 338 334 336 333 326 318 314 312 310 303 308 313 285 273 281 291 304
198 217 236 165 191 239 344 280 282 275 286 265 269 292 315 325 330 336 340 343 345 345 343 346 351 352 336 332 338 335 331 324 317 318 319 313 295 294 308 286 260 268 271 284
240 253 247 243 258 324 322 278 286 288 292 290 279 293 308 314 325 335 339 339 341 343 341 337 343 343 334 330 333 330 323 321 321 321 323 324 313 291 270 260 261 261 259 267
251 273 301 257 252 274 281 289 297 328 326 301 261 281 292 303 315 322 328 333 335 333 327 326 332 333 335 335 335 330 323 319 320 317 313 315 313 293 275 260 246 252 250 244
236 240 237 263 282 292 276 278 274 288 316 321 286 273 292 296 307 316 320 325 326 322 318 319 324 324 329 332 330 323 320 321 319 316 313 309 309 316 309 303 304 292 287 280
245 268 253 275 301 295 277 290 304 300 289 308 324 315 305 303 314 321 315 311 306 305 305 309 314 316 322 327 324 315 306 307 308 309 305 301 297 299 313 327 328 324 318 310
271 269 264 259 271 309 316 314 340 349 342 338 330 333 322 311 313 307 299 301 302 303 301 300 303 306 314 318 316 310 305 298 296 296 297 293 289 289 292 300 315 317 319 319
291 267 248 269 307 325 336 344 341 318 326 329 333 317 306 301 297 297 303 310 312 307 302 302 300 303 314 313 308 304 304 302 302 301 299 295 293 288 286 284 289 302 317 328
288 287 253 253 266 282 293 277 261 280 296 303 302 296 293 290 292 298 304 307 306 302 302 303 298 301 309 309 309 303 295 299 305 301 303 302 300 299 297 293 293 299 304 307
252 260 254 267 270 279 276 268 263 272 284 282 283 293 303 303 302 304 307 307 290 287 290 290 293 302 304 300 296 293 296 299 303 302 294 294 297 295 291 288 288 293 294 296
260 265 259 252 258 269 281 281 273 270 267 274 289 297 290 284 284 292 304 317 316 311 303 294 294 304 305 300 294 292 294 295 295 290 291 291 293 293 291 288 289 290 300 312
299 295 299 299 289 273 277 279 277 273 277 275 276 278 279 276 277 288 304 316 313 308 307 308 317 331 315 304 311 301 300 299 300 298 293 295 298 293 290 287 286 291 298 302
329 331 323 321 330 312 292 294 297 296 288 265 267 284 294 292 288 290 300 293 280 279 291 302 309 306 298 297 315 305 296 294 298 303 304 300 297 296 293 287 283 285 287 287
315 321 323 319 318 315 301 296 292 289 295 281 257 267 280 294 300 296 299 300 301 306 305 304 306 301 299 301 298 293 293 293 294 295 293 291 292 291 291 290 285 281 281 282
308 310 313 317 321 319 322 316 299 294 303 303 288 280 292 300 305 302 282 274 296 316 319 312 311 311 313 308 298 297 294 289 285 284 283 283 284 286 287 290 287 283 279 279
307 307 314 317 311 314 327 328 320 312 306 303 298 290 285 285 289 290 299 302 308 314 319 311 313 317 320 322 317 309 301 293 287 284 283 283 282 282 283 286 287 286 285 285
320 322 317 318 339 351 336 329 333 325 317 313 305 294 287 295 301 283 281 302 313 316 320 315 319 326 333 334 324 316 308 300 296 294 292 291 290 290 289 290 291 294 289 286
316 322 336 347 345 323 314 323 333 335 334 327 320 314 302 283 276 295 306 306 310 317 316 318 322 327 331 321 314 308 302 297 296 296 293 293 292 291 290 289 288 291 292 288
316 316 311 303 295 300 309 316 315 314 318 318 317 313 312 308 297 296 303 306 309 313 312 313 316 319 316 310 305 300 299 300 301 298 294 293 291 290 289 290 289 286 288 287
329 327 325 323 316 302 298 297 298 302 302 298 302 307 312 313 313 313 311 310 313 314 312 311 311 308 305 304 303 303 301 299 296 294 294 291 290 287 288 287 286 284 283 283